Temp
18 19 19 20 23 22 24 25 24 25 26 24 24 25 26 25 27 26 23 22 22 22 22 22 22 22 21 21 22 22 21 21 22 22 22 23 22 22 22 22 21 21 21 21 21 21 21 21 20
18 18 19 19 22 23 24 24 25 27 25 24 23 23 25 27 23 23 22 21 21 22 22 22 22 22 22 22 22 22 22 21 21 22 22 22 22 22 21 21 21 21 21 21 21 21 21 20 20
17 18 20 22 22 23 25 24 27 25 23 24 25 23 24 25 23 23 23 21 21 22 22 22 22 22 22 22 22 22 22 21 22 22 22 21 21 21 21 21 21 20 20 20 20 20 20 20 20
17 17 17 20 21 23 24 25 25 25 23 22 24 26 23 23 23 24 24 22 21 21 22 22 22 22 22 22 22 22 22 22 22 21 21 21 21 21 21 21 21 20 20 20 20 20 20 20 20
16 16 20 19 21 21 22 23 23 26 25 24 23 26 24 22 23 23 24 23 21 21 21 22 22 22 22 22 22 22 22 22 21 21 21 21 21 21 21 21 20 20 20 20 20 20 20 19 19
16 15 18 20 19 20 22 23 23 24 25 24 23 24 23 21 22 23 22 22 21 21 21 21 21 21 21 22 22 22 22 21 21 21 21 21 21 21 21 21 20 20 20 20 20 19 19 19 19
17 18 20 19 21 20 22 22 23 24 24 26 24 26 21 19 21 21 21 21 21 21 21 21 21 21 21 21 22 22 21 21 21 21 21 21 21 21 20 21 20 20 20 20 20 20 20 20 20
15 18 17 18 20 21 22 22 23 23 25 24 24 27 26 20 21 19 19 20 21 21 21 21 21 21 21 21 21 21 21 21 21 21 21 21 21 21 20 20 20 20 20 20 20 20 20 20 20
14 17 19 19 19 22 21 22 22 23 24 25 24 24 23 22 21 19 17 17 17 21 21 21 21 21 21 21 21 21 21 21 21 20 20 20 20 20 20 20 20 20 20 20 20 20 20 20 20
16 16 17 18 20 21 21 21 22 23 23 24 24 21 22 23 22 19 17 20 18 18 21 21 20 20 20 20 20 20 20 20 20 20 20 20 20 20 20 20 20 20 20 20 20 20 20 20 20
13 16 17 17 18 18 20 20 20 23 24 24 24 22 18 20 21 20 17 18 22 18 22 22 20 20 20 20 20 20 20 20 20 20 20 20 20 20 20 20 20 20 19 19 19 19 19 19 19
14 14 16 18 17 18 20 18 20 21 24 22 22 21 18 19 19 18 17 19 19 19 21 21 21 20 20 20 20 20 20 20 20 20 20 20 20 20 20 20 20 19 19 19 19 19 19 19 19
14 14 14 16 15 16 16 19 19 19 21 21 21 21 19 18 18 17 17 18 20 21 21 21 21 21 21 20 20 20 20 19 19 19 19 20 20 20 20 20 19 19 18 18 18 18 18 19 19
12 13 15 15 16 16 17 18 18 21 20 21 21 22 21 19 18 17 19 19 20 21 22 22 22 21 21 21 20 20 20 20 19 19 20 20 20 19 19 19 19 18 18 18 18 18 18 18 18
12 13 14 15 15 17 17 18 19 19 19 19 20 21 21 19 18 18 20 21 21 22 22 22 22 21 21 20 20 20 19 19 19 20 20 20 20 19 19 19 19 18 18 18 17 17 17 18 19
13 13 13 16 16 16 17 19 22 21 20 20 21 21 20 19 18 18 21 21 21 22 22 22 22 22 21 20 20 20 20 20 20 20 19 19 19 18 18 18 18 18 18 17 17 17 18 19 19
12 13 13 15 16 17 17 18 20 20 19 20 21 21 21 19 18 18 21 22 21 22 22 22 22 21 21 20 20 20 20 20 19 19 19 18 18 18 18 18 18 17 17 18 18 18 18 18 17
11 12 13 14 16 16 18 18 20 19 20 21 21 21 21 20 19 20 22 23 22 22 22 22 22 21 21 20 19 19 19 19 18 17 18 18 18 18 18 18 17 17 17 18 17 16 16 18 18
11 11 11 13 14 14 16 17 18 20 19 20 20 20 21 20 19 19 20 21 22 22 21 21 22 21 20 20 19 18 18 17 16 16 16 17 17 16 15 17 15 15 16 16 17 16 16 17 17
11 11 12 13 14 14 15 16 18 19 19 20 21 21 20 19 16 18 19 21 21 22 21 21 21 20 20 19 18 18 18 16 17 17 18 17 17 16 19 17 16 15 15 16 16 16 16 17 16
10 10 11 11 13 15 15 16 18 19 19 20 20 20 19 18 17 19 19 21 21 21 21 20 21 19 19 18 18 18 16 16 16 17 18 19 19 19 18 18 16 14 17 15 16 16 16 16 15
10 11 11 11 12 14 15 17 18 20 20 20 20 18 18 17 18 20 20 22 20 20 20 19 20 17 18 18 17 18 18 18 18 19 18 18 18 16 14 18 14 14 14 15 15 15 15 15 15
10 11 11 12 12 13 15 15 20 20 20 20 21 19 18 17 18 18 20 18 20 19 18 18 17 17 18 18 18 18 18 18 19 18 18 17 19 14 15 15 14 14 15 14 14 15 15 15 14
12 11 11 12 13 12 15 16 20 20 21 21 21 19 18 18 19 19 17 16 18 18 18 17 17 18 18 18 18 18 18 18 19 19 20 19 15 14 14 13 13 14 14 14 14 14 14 13 13
11 11 11 11 11 13 16 15 18 21 23 22 21 19 18 19 18 17 16 16 18 17 17 17 18 19 18 18 18 18 18 19 18 17 16 14 14 13 13 13 13 14 14 14 13 13 12 12 12
10 10 11 10 12 15 16 15 18 21 21 22 21 19 19 18 16 16 16 17 17 18 18 18 18 19 18 18 18 18 17 16 15 14 14 13 13 13 13 13 13 13 13 13 13 12 11 11 10
10 9 12 9 12 15 16 18 19 20 20 21 20 19 19 17 15 17 16 17 19 19 19 18 18 18 18 19 18 17 16 15 14 14 14 13 13 13 13 13 12 12 12 12 11 11 11 10 10
11 12 9 9 11 14 17 17 20 19 20 21 20 19 18 16 15 15 17 16 18 18 18 17 17 18 17 17 16 15 15 14 14 13 13 13 13 12 11 11 11 11 10 11 11 10 10 9 9
10 10 11 11 11 16 17 18 21 21 21 20 21 20 18 17 16 16 15 17 19 18 17 16 16 16 16 15 15 14 13 13 13 13 13 12 12 11 10 10 11 10 11 10 10 10 9 9 9
11 11 11 11 13 14 15 19 19 21 21 21 21 19 17 16 16 16 18 18 19 18 15 15 15 15 15 15 14 13 13 13 12 12 12 11 10 10 10 10 9 10 9 9 9 9 9 9 9
Height
1505 1507 1510 1513 1515 1511 1507 1501 1497 1493 1492 1491 1490 1489 1489 1490 1490 1498 1493 1494 1497 1501 1506 1511 1517 1520 1523 1526 1529 1532 1533 1535 1537 1540 1542 1543 1544 1545 1546 1548 1550 1550 1551 1552 1553 1553 1554 1554 1553
1503 1506 1510 1511 1509 1509 1499 1496 1493 1487 1489 1490 1489 1489 1489 1487 1489 1490 1491 1494 1498 1502 1507 1511 1516 1520 1523 1527 1530 1532 1535 1537 1539 1541 1543 1544 1545 1546 1548 1549 1550 1551 1552 1552 1553 1553 1554 1554 1554
1502 1504 1508 1504 1500 1496 1493 1491 1485 1489 1490 1489 1489 1487 1487 1487 1487 1489 1489 1492 1498 1503 1507 1512 1517 1521 1524 1528 1530 1533 1535 1538 1540 1542 1543 1545 1546 1548 1549 1550 1551 1553 1553 1554 1554 1554 1554 1555 1555
1500 1505 1506 1500 1493 1488 1486 1485 1486 1487 1489 1489 1488 1486 1486 1485 1487 1489 1489 1493 1498 1505 1508 1512 1518 1521 1525 1528 1530 1533 1536 1538 1541 1542 1544 1545 1546 1547 1549 1550 1551 1553 1553 1553 1554 1554 1554 1554 1554
1498 1500 1497 1496 1492 1491 1488 1486 1486 1484 1485 1486 1487 1482 1485 1485 1486 1487 1489 1493 1498 1505 1510 1512 1518 1522 1525 1529 1531 1534 1537 1539 1541 1542 1544 1545 1547 1548 1549 1550 1551 1552 1553 1553 1554 1554 1554 1554 1554
1496 1496 1493 1489 1493 1490 1486 1486 1486 1484 1484 1485 1485 1484 1483 1482 1485 1486 1488 1492 1499 1505 1510 1513 1517 1522 1526 1529 1532 1535 1537 1539 1541 1543 1544 1545 1547 1548 1549 1550 1551 1552 1552 1553 1554 1554 1554 1554 1554
1489 1489 1483 1487 1482 1487 1483 1484 1483 1482 1482 1482 1482 1480 1481 1482 1482 1485 1488 1493 1499 1506 1511 1514 1518 1522 1526 1529 1532 1535 1538 1540 1541 1543 1545 1546 1548 1549 1550 1550 1551 1552 1553 1554 1554 1554 1554 1554 1554
1488 1487 1488 1485 1482 1480 1479 1480 1480 1482 1477 1481 1481 1476 1478 1479 1482 1485 1489 1494 1501 1504 1510 1514 1517 1521 1525 1529 1532 1535 1538 1541 1542 1544 1545 1547 1548 1549 1551 1551 1552 1553 1554 1554 1553 1554 1554 1553 1553
1486 1484 1477 1477 1480 1475 1477 1476 1477 1477 1475 1477 1476 1476 1478 1478 1481 1485 1489 1495 1501 1503 1508 1512 1516 1520 1524 1528 1531 1535 1538 1542 1544 1544 1546 1547 1549 1550 1551 1552 1552 1553 1553 1553 1553 1553 1552 1552 1551
1481 1477 1476 1476 1475 1473 1474 1475 1474 1474 1472 1473 1473 1472 1474 1477 1480 1482 1487 1490 1498 1500 1504 1510 1516 1520 1523 1527 1530 1534 1537 1541 1543 1545 1546 1548 1549 1550 1551 1552 1552 1553 1552 1552 1551 1551 1550 1550 1550
1480 1472 1475 1474 1475 1475 1474 1473 1473 1470 1469 1468 1470 1471 1472 1476 1478 1482 1486 1491 1491 1499 1501 1508 1514 1518 1522 1525 1529 1533 1536 1539 1542 1545 1547 1549 1549 1550 1551 1553 1553 1553 1553 1552 1551 1550 1549 1548 1547
1479 1478 1475 1473 1475 1474 1471 1472 1470 1469 1465 1466 1469 1469 1471 1473 1476 1479 1483 1488 1491 1496 1501 1507 1512 1517 1521 1525 1528 1533 1536 1539 1542 1545 1547 1549 1550 1550 1551 1551 1552 1553 1552 1551 1551 1550 1548 1546 1544
1477 1477 1476 1474 1474 1474 1474 1468 1470 1462 1462 1465 1467 1470 1471 1473 1475 1479 1482 1486 1489 1493 1500 1506 1510 1515 1519 1523 1527 1531 1536 1539 1542 1544 1547 1549 1550 1550 1551 1551 1552 1552 1551 1550 1549 1547 1546 1544 1542
1478 1477 1475 1475 1473 1473 1473 1470 1467 1454 1459 1461 1464 1469 1470 1470 1472 1476 1478 1483 1487 1493 1498 1503 1508 1513 1517 1521 1526 1531 1536 1539 1542 1544 1545 1547 1548 1549 1550 1551 1551 1551 1550 1550 1548 1546 1543 1542 1540
1478 1477 1475 1473 1473 1471 1473 1466 1454 1460 1460 1458 1463 1466 1466 1468 1470 1473 1476 1481 1486 1492 1497 1502 1506 1511 1516 1520 1525 1530 1535 1539 1542 1543 1545 1546 1548 1548 1549 1549 1550 1551 1550 1549 1547 1545 1541 1538 1535
1475 1475 1472 1467 1470 1469 1471 1445 1454 1458 1459 1456 1459 1465 1467 1469 1470 1472 1475 1481 1486 1490 1496 1501 1505 1510 1514 1519 1524 1529 1534 1537 1540 1542 1544 1547 1549 1551 1551 1550 1551 1550 1549 1548 1546 1543 1539 1535 1531
1475 1469 1470 1466 1463 1461 1460 1454 1452 1453 1454 1452 1456 1460 1464 1468 1470 1471 1475 1479 1485 1491 1496 1501 1505 1510 1515 1520 1526 1531 1534 1538 1541 1543 1545 1547 1548 1549 1551 1551 1550 1550 1548 1548 1546 1541 1535 1530 1528
1471 1471 1468 1463 1458 1458 1452 1454 1447 1450 1450 1450 1453 1457 1460 1466 1466 1469 1475 1479 1485 1491 1495 1500 1505 1509 1515 1521 1526 1530 1533 1538 1540 1539 1542 1543 1544 1545 1546 1551 1552 1552 1551 1548 1543 1538 1534 1527 1522
1474 1474 1471 1464 1461 1461 1453 1453 1451 1447 1449 1448 1450 1452 1456 1460 1465 1468 1474 1481 1485 1489 1494 1499 1505 1509 1516 1521 1525 1529 1534 1535 1537 1538 1539 1538 1541 1541 1541 1541 1552 1551 1549 1544 1542 1538 1533 1527 1521
1475 1473 1469 1466 1461 1462 1454 1451 1446 1445 1444 1444 1446 1447 1451 1457 1461 1467 1473 1479 1484 1488 1493 1500 1505 1510 1515 1521 1525 1530 1531 1532 1533 1536 1537 1537 1540 1541 1536 1539 1547 1542 1539 1545 1540 1536 1531 1527 1522
1474 1472 1470 1470 1463 1457 1454 1448 1441 1436 1439 1441 1442 1443 1448 1449 1457 1463 1472 1476 1482 1487 1492 1497 1504 1510 1515 1520 1524 1528 1528 1530 1534 1535 1536 1536 1535 1533 1531 1534 1540 1545 1545 1541 1537 1534 1529 1525 1522
1472 1470 1470 1467 1467 1458 1452 1440 1430 1428 1430 1435 1440 1441 1444 1449 1454 1461 1467 1470 1479 1484 1492 1497 1503 1511 1515 1520 1522 1524 1526 1529 1532 1533 1530 1528 1523 1521 1525 1529 1538 1541 1542 1538 1535 1532 1528 1524 1520
1467 1467 1466 1465 1464 1462 1450 1452 1418 1422 1427 1428 1431 1436 1441 1446 1453 1460 1465 1474 1480 1487 1492 1497 1503 1511 1515 1518 1520 1522 1523 1526 1527 1526 1525 1527 1522 1531 1531 1533 1539 1540 1537 1534 1533 1530 1527 1520 1519
1465 1466 1466 1462 1460 1462 1445 1443 1416 1416 1411 1418 1424 1429 1436 1444 1452 1459 1467 1472 1478 1485 1490 1497 1504 1509 1514 1516 1518 1519 1522 1525 1524 1522 1523 1524 1529 1533 1535 1538 1539 1536 1536 1533 1531 1528 1523 1519 1515
1464 1463 1462 1465 1463 1445 1431 1441 1414 1401 1401 1407 1416 1423 1432 1441 1450 1458 1463 1470 1478 1483 1490 1496 1503 1508 1511 1514 1515 1519 1520 1523 1524 1526 1528 1527 1531 1534 1536 1536 1537 1535 1532 1529 1527 1523 1520 1519 1516
1459 1462 1452 1456 1445 1430 1431 1429 1410 1397 1401 1403 1413 1422 1431 1438 1449 1455 1463 1470 1477 1483 1490 1497 1503 1507 1510 1513 1516 1519 1521 1522 1524 1526 1528 1530 1533 1533 1534 1535 1534 1531 1528 1525 1521 1520 1520 1520 1517
1458 1461 1453 1457 1441 1428 1420 1409 1399 1396 1398 1403 1411 1422 1430 1438 1446 1452 1464 1470 1475 1483 1490 1497 1502 1506 1510 1513 1516 1519 1521 1523 1525 1527 1529 1531 1533 1533 1532 1530 1530 1526 1525 1522 1521 1522 1520 1520 1519
1450 1449 1459 1461 1444 1432 1409 1407 1397 1397 1395 1399 1409 1417 1427 1435 1441 1457 1463 1470 1476 1484 1491 1497 1502 1506 1509 1514 1518 1520 1522 1524 1526 1529 1530 1531 1533 1533 1532 1530 1528 1527 1525 1523 1521 1520 1521 1523 1519
1450 1451 1449 1446 1444 1413 1405 1399 1388 1389 1389 1393 1400 1412 1422 1432 1440 1451 1461 1468 1476 1484 1491 1496 1502 1506 1510 1515 1518 1522 1524 1526 1528 1530 1531 1532 1532 1531 1530 1529 1526 1525 1523 1523 1523 1522 1524 1524 1518
1438 1441 1444 1439 1427 1420 1413 1389 1386 1385 1387 1390 1400 1412 1422 1431 1440 1449 1458 1468 1476 1483 1491 1497 1502 1507 1511 1515 1519 1522 1524 1526 1528 1529 1530 1530 1530 1529 1528 1527 1527 1526 1525 1525 1523 1523 1524 1522 1519
Wind_Speed
12 13 10 5 4 3 6 5 3 5 3 2 1 3 2 1 3 0 5 21 27 36 34 29 25 21 21 21 21 21 20 18 16 13 12 13 12 13 13 13 12 12 11 10 9 8 7 7 8
11 11 11 3 6 9 9 6 11 8 1 5 2 2 4 1 4 1 5 21 33 37 34 30 24 21 20 19 20 20 19 18 16 14 15 14 12 12 12 13 12 12 11 10 9 8 7 6 5
12 15 8 4 7 17 11 11 14 6 5 4 3 3 2 2 3 1 1 24 38 37 33 29 24 21 19 18 19 19 19 18 17 16 16 14 12 11 12 12 12 11 10 9 8 7 5 5 3
11 8 1 7 17 16 14 7 12 9 6 5 4 4 2 6 3 5 8 27 39 36 33 29 24 21 18 17 18 19 19 18 18 17 15 13 12 12 12 11 11 10 9 7 5 4 3 3 4
15 5 7 8 17 5 11 7 8 9 5 5 6 3 2 5 6 6 13 29 39 36 33 30 25 21 17 16 17 18 18 18 17 16 15 13 12 12 12 11 10 9 7 5 4 4 5 5 6
7 3 6 16 12 10 6 14 6 9 6 5 4 6 2 5 5 11 22 32 37 37 34 30 26 22 18 15 16 18 17 17 17 16 15 14 12 12 11 10 9 8 8 7 6 6 6 7 8
8 5 13 5 19 9 14 11 13 10 10 10 3 4 2 6 8 16 28 34 38 37 34 31 27 23 19 16 16 17 17 17 16 16 15 13 12 11 10 10 9 8 7 6 6 7 7 8 10
6 4 8 8 10 11 11 10 13 18 19 5 5 5 3 11 14 19 27 33 37 36 34 31 29 26 22 19 17 16 16 16 16 15 14 12 11 10 9 8 7 6 5 5 5 6 7 8 9
7 7 13 14 14 9 8 12 11 9 23 15 11 11 4 8 17 23 27 29 28 35 34 32 30 28 24 21 19 17 16 16 15 14 13 11 9 8 7 6 5 5 4 4 5 5 6 8 9
8 9 13 7 8 8 8 10 6 6 11 21 16 10 12 12 20 26 30 36 30 30 34 32 31 29 27 23 21 19 17 16 15 14 12 10 9 8 7 6 5 4 4 5 6 6 8 9 10
4 9 9 9 8 5 5 5 3 5 11 14 9 13 15 19 21 25 28 32 37 30 34 33 32 30 27 26 22 20 17 15 14 12 12 12 11 9 7 5 5 5 6 6 7 8 10 9 10
6 7 6 7 3 3 4 5 5 11 11 6 2 6 17 20 21 24 27 32 34 31 31 32 31 30 28 25 23 21 18 15 13 11 11 12 12 10 9 7 7 6 8 8 10 12 12 11 12
10 5 7 14 8 7 8 14 9 18 22 18 12 3 12 15 16 21 25 29 32 32 31 31 30 29 28 26 25 22 19 15 13 11 10 11 11 10 10 8 8 7 8 9 11 12 13 13 14
2 5 10 7 12 7 6 13 8 21 14 12 11 8 13 15 18 21 26 31 33 32 30 28 28 28 28 27 25 21 18 15 13 11 11 10 10 9 9 9 8 6 7 10 12 13 15 17 19
4 5 5 14 11 8 8 19 24 28 25 25 17 9 7 16 18 24 27 30 31 28 28 27 25 26 27 25 22 19 16 13 12 9 8 8 6 5 5 6 6 6 9 10 12 16 18 20 20
5 6 10 8 14 13 9 28 16 25 26 29 23 15 5 14 19 23 26 27 29 29 27 25 23 23 24 24 20 17 15 14 10 7 5 5 3 2 4 4 6 8 11 14 17 19 21 20 22
2 4 12 9 14 10 23 10 14 21 13 25 22 15 8 15 18 23 23 23 27 27 26 23 20 20 20 20 17 15 14 9 7 5 3 4 5 6 9 11 13 14 15 19 22 21 20 21 22
5 7 6 8 11 18 16 22 17 3 16 18 13 15 14 20 21 26 25 22 24 26 25 22 21 21 20 19 16 14 11 10 6 6 7 10 11 11 10 15 19 18 18 20 26 23 22 21 24
4 4 6 8 6 5 16 16 21 28 18 17 11 16 16 21 20 26 26 23 24 25 26 22 23 22 20 19 17 14 8 7 5 4 2 5 3 0 7 5 16 19 20 25 25 24 23 23 25
6 8 9 11 13 6 12 14 14 19 21 22 20 13 20 23 21 27 29 27 26 25 25 22 21 20 19 17 14 11 11 8 11 12 10 7 11 11 14 26 27 13 30 27 23 23 21 19 18
8 9 7 8 8 10 10 15 16 13 23 23 12 17 24 29 28 30 32 30 27 25 23 24 21 19 17 18 15 9 11 8 5 6 7 12 24 29 18 27 31 28 24 18 18 14 12 13 14
11 8 10 9 5 6 4 5 16 17 16 19 17 20 24 26 27 31 32 30 30 26 26 22 21 17 14 14 16 18 13 7 7 4 7 10 17 18 14 22 11 8 7 6 8 9 11 11 14
6 6 6 8 7 7 8 5 13 16 16 17 19 25 27 29 29 31 31 28 30 28 23 22 18 14 12 11 12 14 11 6 9 11 6 9 4 9 6 3 4 4 5 7 8 9 11 13 13
6 8 6 5 5 8 14 11 13 14 23 21 22 27 30 31 30 27 25 26 26 24 21 19 19 16 12 12 12 10 12 11 10 13 11 12 10 7 5 5 4 4 5 6 8 10 12 12 13
13 9 5 5 6 8 15 10 16 18 21 23 24 31 33 34 29 28 28 27 27 25 22 20 16 18 16 17 16 17 17 15 14 11 10 9 10 9 6 2 5 5 5 7 9 11 12 12 12
18 9 3 7 7 12 10 11 12 18 16 26 29 31 35 33 31 32 29 28 28 24 23 22 23 19 19 19 20 19 15 16 17 15 14 11 8 4 3 4 3 6 8 10 11 10 11 11 12
13 11 1 3 4 5 10 15 9 8 15 17 25 28 33 33 33 31 29 30 29 26 23 29 20 24 22 20 20 19 19 18 16 12 9 6 6 4 2 3 7 9 9 9 9 9 11 11 11
9 9 6 3 7 8 14 20 11 13 19 18 22 29 30 29 30 32 32 29 30 28 27 28 24 25 24 23 22 22 19 15 12 11 9 8 5 2 1 3 5 7 7 8 10 11 11 10 12
8 11 7 4 5 9 9 16 18 13 20 23 25 33 35 34 34 32 31 33 33 28 28 29 29 27 26 24 23 20 18 15 13 11 9 6 3 2 2 5 7 8 9 9 9 10 10 10 13
18 15 16 8 13 5 5 11 4 16 22 23 28 31 33 35 35 38 38 37 34 32 31 32 31 29 26 23 20 18 16 14 12 10 7 5 2 2 4 6 7 8 8 8 8 9 10 11 13
Wind_Direction
219 218 211 189 223 239 221 216 281 227 214 279 181 213 180 195 224 307 168 177 183 170 167 166 167 168 170 174 175 175 175 175 174 171 171 158 153 153 154 156 157 156 151 149 144 136 133 127 117
210 190 177 185 228 212 218 219 224 217 176 305 228 228 233 216 211 204 159 179 179 171 167 166 166 165 167 179 179 181 181 182 180 176 168 159 154 152 151 153 156 153 148 146 141 134 129 132 128
196 175 171 205 219 222 224 205 223 233 267 234 252 245 250 177 142 105 113 165 173 172 167 167 167 165 169 178 181 183 182 181 177 172 166 162 156 152 150 152 151 149 146 144 140 133 131 138 149
176 176 140 227 215 226 224 197 221 232 243 208 210 251 253 200 132 127 174 170 172 173 170 169 168 167 170 175 177 179 178 176 172 170 168 167 163 162 159 158 157 155 154 156 153 158 167 196 225
174 165 210 223 229 245 227 238 215 203 187 191 199 241 223 205 197 189 177 172 174 174 173 170 171 170 170 172 173 174 176 174 173 173 172 173 173 171 173 174 173 172 174 178 192 209 219 234 250
170 173 209 216 217 223 241 212 206 215 201 183 227 252 232 214 171 168 172 170 175 176 174 171 172 172 170 169 173 176 177 177 177 178 177 181 181 181 182 186 191 196 204 210 223 237 248 256 265
211 191 219 226 221 218 222 216 223 223 236 233 215 265 190 187 183 162 170 172 174 177 175 174 173 173 171 170 174 179 181 181 183 184 186 188 188 188 190 193 200 211 224 236 251 262 269 271 274
189 215 198 217 206 229 217 224 231 231 249 220 196 242 206 200 182 165 167 169 177 176 179 178 177 175 174 174 175 183 187 190 189 191 193 194 193 194 200 204 210 223 240 253 265 282 287 289 292
167 217 218 213 206 217 197 204 213 241 243 253 238 237 232 172 173 166 164 167 170 177 182 182 180 179 179 179 179 182 191 198 199 198 200 199 196 199 205 213 221 227 239 257 269 276 285 293 295
206 219 207 212 214 219 190 213 204 226 214 230 244 246 226 190 177 170 171 174 175 176 182 187 187 184 182 183 185 188 192 200 208 211 212 208 206 210 215 226 239 257 260 266 276 281 292 299 304
195 225 204 207 211 223 223 229 270 220 218 222 231 215 175 175 178 180 178 183 184 181 186 190 190 189 188 189 191 195 197 202 209 219 224 226 225 227 234 256 278 284 281 287 292 295 301 308 303
222 234 232 199 210 271 260 299 269 242 229 154 35 248 191 192 191 183 181 182 181 184 189 192 194 195 196 197 199 206 208 211 217 228 237 240 242 245 249 258 273 284 288 293 299 298 302 301 298
221 210 231 245 273 280 293 272 266 265 252 266 276 290 210 204 191 187 183 184 187 189 195 195 197 201 201 203 207 211 216 220 230 240 251 252 251 254 257 264 273 285 285 292 296 303 302 301 301
189 226 241 264 254 255 266 267 277 259 265 281 283 276 236 212 195 183 186 187 190 193 197 197 201 205 205 206 210 214 221 229 241 247 251 254 253 255 263 268 273 274 297 306 306 302 301 304 306
219 236 231 234 241 251 247 260 239 251 274 283 286 298 241 207 195 195 192 194 193 197 198 201 202 204 206 207 211 215 221 231 239 244 243 245 255 258 270 272 270 293 299 301 306 309 311 312 313
219 219 230 200 216 225 217 249 238 250 250 260 267 265 264 204 198 198 201 197 199 201 200 203 204 203 202 203 204 207 209 212 211 208 220 226 241 283 313 325 305 290 292 301 305 310 315 314 311
200 203 220 237 208 212 213 254 240 245 239 247 254 254 237 216 197 199 203 205 203 202 202 202 201 199 199 197 197 199 202 195 184 173 187 241 246 268 289 296 293 296 296 296 307 311 304 304 309
178 198 215 211 203 225 230 232 252 280 231 242 249 242 224 220 203 208 203 199 200 202 204 204 201 196 193 189 191 195 187 183 186 202 238 247 258 260 283 287 290 295 297 301 286 292 297 304 304
265 250 254 258 255 270 246 239 232 252 263 270 271 239 216 205 196 202 201 194 197 200 203 205 203 197 193 188 191 192 176 197 197 242 270 234 224 276 11 291 325 318 310 282 292 293 301 304 314
257 271 267 276 274 253 253 256 242 244 246 251 256 238 198 178 184 192 197 192 196 200 198 205 204 201 193 196 193 200 202 192 211 220 226 238 325 329 312 312 309 282 260 268 277 293 312 324 337
231 246 254 261 307 276 264 261 244 237 234 238 252 226 193 183 179 189 191 195 198 203 201 203 202 203 195 198 200 180 182 196 256 289 288 289 302 289 280 296 295 271 271 278 288 309 328 336 343
235 230 247 257 261 233 15 252 216 221 219 218 226 200 191 184 182 185 191 189 197 202 201 196 199 197 191 197 209 218 228 248 228 282 259 292 308 321 273 272 270 286 290 305 314 325 334 336 341
227 197 236 248 244 268 222 233 237 203 214 205 209 199 189 182 179 178 184 183 190 197 190 192 189 184 191 194 215 226 230 233 271 248 266 208 195 283 276 204 195 261 305 319 330 329 325 336 334
227 217 222 254 226 237 225 227 224 190 203 194 201 201 186 179 181 180 170 176 178 180 180 180 182 180 200 192 206 221 232 200 156 151 172 209 215 184 152 176 242 301 321 322 326 331 338 344 351
221 186 162 187 200 232 198 215 252 208 202 191 193 195 187 179 171 168 168 165 170 169 166 175 178 166 164 172 165 158 150 158 161 178 194 174 168 172 190 235 288 296 317 335 346 353 356 358 5
198 200 231 190 197 214 207 219 232 225 219 186 191 186 180 171 170 169 162 158 160 164 172 165 155 162 156 152 160 167 173 164 157 153 156 163 169 192 226 250 299 341 352 355 2 9 16 27 26
179 212 209 291 255 230 203 221 261 227 186 176 178 172 173 165 165 161 155 153 155 161 165 161 158 154 151 153 150 150 145 142 141 146 153 176 196 206 239 335 343 354 1 14 27 37 39 36 39
220 171 194 206 214 200 216 213 221 180 176 169 173 174 163 158 148 158 155 151 159 156 154 161 160 151 146 145 144 144 143 145 150 159 170 174 172 180 343 0 7 15 28 36 42 43 44 46 40
185 203 208 253 259 223 210 218 215 205 176 171 174 172 159 159 152 150 156 162 161 161 158 160 156 149 145 144 146 149 150 154 155 152 155 158 157 105 24 22 22 36 39 44 48 53 54 43 45
208 212 205 210 210 241 292 218 197 206 185 170 170 162 157 152 149 161 164 162 166 166 160 157 151 149 147 148 151 151 146 143 145 149 146 128 102 57 40 47 54 54 51 50 59 64 64 57 50